[[{"header":{"parameterUnit":"m.s-1","parameterCategory":1,"la1":30.2991,"la2":30.254,"lo1":-89.0895,"lo2":-89.0444,"dy":0.0017,"dx":0.0017,"nx":28,"ny":28,"refTime":"2024-08-16T09:00:00:Z","depth":0,"parameterNumber":2,"parameterNumberName":"U-component_of_WINDS"},"data":[0,0,0,0,0,0,0,0,0,0,0,0,0,0,0,0,0,0,0,0,0,0,0,0,0,0,0,0,0,0,0,0,0,0,0,0,0,0,0,0,0,0,0,0,0,0,0,0,0,0,0,0,0,0,0,0,0,0,0.9519,0.9519,0,0.9488,0.9487,0.9487,0.9461,0.946,0.946,0.946,0.9424,0.9424,0.9423,0,0,0,0,0,0,0,0,0,0,0,0,0,0.9554,0.9553,0.9519,0.9519,0.9519,0.9488,0.9487,0.9487,0.9461,0.946,0.946,0.946,0.9425,0.9424,0.9423,0,0,0,0,0,0,0,0,0,0,0,0,0,0.9532,0.9553,0.9519,0.9502,0.95,0.9488,0.9487,0.9487,0.9461,0.946,0.946,0.9459,0.9425,0.9424,0.9423,0.9425,0,0,0.942,0.9419,0,0,0,0,0,0,0,0,0.9534,0.9531,0.9505,0.9503,0.9501,0.9478,0.9487,0.9466,0.9461,0.9475,0.946,0.9459,0.9442,0.944,0.9435,0.9423,0.9422,0.942,0.9419,0.9418,0.9418,0,0,0,0,0,0,0,0.9535,0.9532,0.9507,0.9504,0.9502,0.9495,0.9491,0.9483,0.9461,0.9474,0.9472,0.9469,0.9441,0.9436,0.9434,0.9421,0.942,0.9419,0.9418,0.9418,0.9409,0.941,0,0,0,0,0,0,0.954,0.9534,0.9508,0.9506,0.9517,0.9494,0.949,0.9486,0.9462,0.9458,0.9469,0.9468,0.9438,0.9435,0.9432,0.9433,0.9419,0.9418,0.9417,0.9409,0.9409,0.941,0,0,0,0,0,0,0.9541,0.9538,0.9509,0.9519,0.9515,0.9494,0.9489,0.9485,0.948,0.9458,0.9454,0.9468,0.9437,0.9434,0.9427,0.9431,0.9417,0.9416,0.9408,0.9409,0.9409,0.9434,0,0,0,0,0,0,0.9542,0.9538,0.9539,0.9519,0.9515,0.9505,0.9489,0.9485,0.9479,0.9476,0.9456,0.9452,0.9437,0.9429,0.9426,0.943,0.9415,0.9408,0.9409,0.9409,0.9433,0.9436,0.9438,0,0,0,0,0,0.9543,0.9547,0.954,0.9537,0.9516,0.9506,0.9503,0.9486,0.9479,0.948,0.9466,0.9452,0.9431,0.9428,0.9425,0.9428,0.9407,0.9408,0.9409,0.9432,0.9435,0.9438,0,0,0,0,0,0,0.9567,0.9544,0.9536,0.9534,0.9522,0.9501,0.9502,0.949,0.948,0.9478,0.9457,0.9452,0.9448,0.9437,0.9434,0.9429,0.9418,0.9418,0.9436,0.9439,0.9441,0.9444,0.9415,0,0,0,0,0,0.9572,0.9567,0.9547,0.9547,0.9541,0.9523,0.9518,0.9506,0.9493,0.9487,0.9473,0.9459,0.945,0.9444,0.9433,0.9431,0.9426,0.9432,0.9434,0.9437,0.9437,0.9434,0.9437,0.9413,0.9413,0.9413,0,0,0.9582,0.9569,0.9567,0.9551,0.9541,0.9535,0.9519,0.9513,0.9508,0.9486,0.9479,0.9468,0.9451,0.9447,0.9444,0.9438,0.9442,0.9438,0.944,0.9439,0.9436,0.9438,0.944,0.9413,0.9413,0.9413,0,0,0.9598,0.9588,0.9587,0.9577,0.9562,0.955,0.9549,0.953,0.9523,0.9516,0.9499,0.9492,0.9476,0.9465,0.9457,0.9469,0.9456,0.9466,0.9479,0.9477,0.9479,0.948,0.9484,0.9486,0.9467,0.9467,0.9467,0,0.9613,0.9604,0.9588,0.9583,0.9576,0.9557,0.9556,0.9546,0.9528,0.9524,0.9517,0.9497,0.9484,0.9477,0.948,0.9474,0.9473,0.9468,0.948,0.9481,0.9483,0.9486,0.9488,0.9468,0.9468,0.9468,0.9468,0,0.9623,0.9617,0.9617,0.9602,0.9595,0.9592,0.9574,0.9569,0.9558,0.9546,0.9538,0.9523,0.9509,0.9507,0.9495,0.9498,0.9494,0.9484,0.9472,0.9487,0.9489,0.9491,0.947,0.9469,0.9469,0.9469,0,0,0.9652,0.9628,0.9628,0.9621,0.9603,0.9597,0.9593,0.9581,0.9577,0.9565,0.956,0.9547,0.9538,0.9529,0.9516,0.9515,0.9524,0.9505,0.9504,0.9509,0.9525,0.9533,0.9534,0.9516,0.9516,0.9516,0.9526,0,0.9665,0.9657,0.9642,0.9639,0.9633,0.9615,0.9611,0.9599,0.9587,0.958,0.9566,0.9558,0.9546,0.9541,0.9538,0.9524,0.9527,0.9523,0.951,0.951,0.9515,0.9536,0.9544,0.9554,0.9527,0.9528,0.9528,0,0.9679,0.9669,0.9665,0.9648,0.9645,0.9642,0.9629,0.9622,0.9608,0.96,0.959,0.9577,0.957,0.956,0.955,0.9547,0.9541,0.9533,0.9533,0.9531,0.952,0.9534,0.9557,0.9559,0.9529,0.9529,0.9529,0,0.97,0.9686,0.9682,0.9677,0.9656,0.9654,0.9645,0.9631,0.9624,0.9613,0.9608,0.9596,0.9589,0.9579,0.9562,0.9556,0.9554,0.9542,0.9546,0.9546,0.9546,0.9546,0.9568,0.9543,0.9543,0.9543,0.9543,0,0.9716,0.9714,0.9692,0.9689,0.9687,0.9669,0.9667,0.9656,0.9643,0.9637,0.9621,0.9615,0.9593,0.9585,0.9572,0.9565,0.9562,0.9555,0.9551,0.9556,0.9557,0.9551,0.955,0.9543,0.9543,0.9543,0.9543,0,0.974,0.9725,0.9719,0.97,0.9696,0.9695,0.9678,0.9674,0.9662,0.9655,0.9652,0.9632,0.9622,0.9604,0.9588,0.9579,0.9575,0.9569,0.958,0.9578,0.9583,0.9583,0.9602,0.9603,0.9577,0.9578,0.9578,0,0.9751,0.9749,0.973,0.9726,0.9718,0.9711,0.9705,0.9687,0.9681,0.9665,0.9663,0.9651,0.9641,0.9625,0.9609,0.9596,0.9589,0.9597,0.9587,0.9593,0.9589,0.9589,0.9589,0.9599,0.96,0.96,0.96,0,0.9771,0.9764,0.9756,0.9746,0.9739,0.9729,0.9719,0.9716,0.9696,0.9689,0.9679,0.9671,0.9656,0.9644,0.963,0.9619,0.9606,0.9603,0.9603,0.9609,0.9615,0.9611,0.9586,0.9603,0.9603,0.9602,0.9602,0.9602,0.9788,0.9786,0.9773,0.9765,0.9755,0.9746,0.9742,0.9729,0.9721,0.9707,0.9697,0.9688,0.9673,0.9652,0.9642,0.9634,0.9628,0.9628,0.9628,0.9628,0.963,0.9617,0.9631,0.9631,0.9631,0.963,0.963,0,0.9808,0.9799,0.9791,0.9778,0.9771,0.9761,0.9748,0.9743,0.9735,0.9723,0.9714,0.9702,0.9691,0.9674,0.9661,0.9657,0.9651,0.9654,0.9654,0.9652,0.9636,0.9637,0.966,0.966,0.966,0.966,0.966,0.966,0.9817,0.9813,0.9804,0.9795,0.9785,0.9777,0.9771,0.9762,0.9752,0.974,0.9731,0.972,0.9706,0.9692,0.968,0.9676,0.9671,0.9677,0.967,0.9656,0.9653,0.965,0.9651,0.9676,0.9676,0.9686,0.9686,0.9686]},{"header":{"parameterUnit":"m.s-1","parameterCategory":1,"la1":30.2991,"la2":30.254,"lo1":-89.0895,"lo2":-89.0444,"dy":0.0017,"dx":0.0017,"nx":28,"ny":28,"refTime":"2024-08-16T09:00:00:Z","depth":0,"parameterNumber":3,"parameterNumberName":"V-component_of_WINDS"},"data":[0,0,0,0,0,0,0,0,0,0,0,0,0,0,0,0,0,0,0,0,0,0,0,0,0,0,0,0,0,0,0,0,0,0,0,0,0,0,0,0,0,0,0,0,0,0,0,0,0,0,0,0,0,0,0,0,0,0,0.0119,0.0121,0,0.0327,0.033,0.0332,0.0395,0.0394,0.0392,0.0391,0.0608,0.0615,0.0622,0,0,0,0,0,0,0,0,0,0,0,0,0,-0.0222,-0.0216,0.0119,0.0121,0.0124,0.0327,0.033,0.0332,0.0395,0.0393,0.0392,0.0391,0.0606,0.0614,0.0622,0,0,0,0,0,0,0,0,0,0,0,0,0,-0.005,-0.0214,0.0118,0.0179,0.0187,0.0326,0.033,0.0333,0.0395,0.0393,0.0392,0.039,0.0603,0.0613,0.0623,0.0718,0,0,0.0654,0.0659,0,0,0,0,0,0,0,0,-0.0059,-0.0037,0.0168,0.0175,0.0184,0.0333,0.0289,0.0462,0.0395,0.0316,0.0391,0.039,0.0518,0.0535,0.0578,0.0728,0.0737,0.0655,0.0661,0.0666,0.0669,0,0,0,0,0,0,0,-0.0071,-0.0046,0.0201,0.0171,0.0181,0.0198,0.022,0.0322,0.0424,0.0323,0.0328,0.0352,0.0522,0.0568,0.0584,0.0741,0.0655,0.0664,0.067,0.0674,0.0981,0.0983,0,0,0,0,0,0,-0.0094,-0.0056,0.0195,0.0207,0.0056,0.0205,0.023,0.0287,0.0423,0.0442,0.0353,0.0354,0.0552,0.0572,0.0591,0.0713,0.0666,0.0675,0.0681,0.0979,0.0981,0.0983,0,0,0,0,0,0,-0.0102,-0.0072,0.0186,0.0077,0.0111,0.0213,0.0276,0.0292,0.0338,0.0445,0.0464,0.038,0.0551,0.0577,0.0686,0.0721,0.068,0.0689,0.0976,0.0979,0.0982,0.0955,0,0,0,0,0,0,-0.0112,-0.0076,-0.004,0.0077,0.0117,0.0276,0.0278,0.0297,0.0355,0.0358,0.0476,0.0494,0.0552,0.0671,0.0696,0.0734,0.0697,0.0974,0.0978,0.0981,0.0953,0.0956,0.0959,0,0,0,0,0,-0.0124,-0.0055,-0.0038,-0.0008,0.0164,0.0278,0.0301,0.0364,0.0357,0.0395,0.0464,0.0491,0.0713,0.0681,0.0711,0.0752,0.0972,0.0977,0.0981,0.0951,0.0956,0.0959,0,0,0,0,0,0,-0.017,-0.0039,-0.0018,0.009,0.0172,0.0288,0.0338,0.0367,0.0453,0.0453,0.0529,0.0556,0.066,0.0717,0.068,0.0852,0.0843,0.0854,0.0811,0.0816,0.0819,0.0803,0.0705,0,0,0,0,0,-0.0168,-0.0087,0.0024,0.0109,0.0149,0.0236,0.0288,0.033,0.0419,0.0454,0.0532,0.0617,0.0707,0.0764,0.0852,0.0961,0.0989,0.1004,0.1007,0.1009,0.1018,0.1081,0.109,0.0999,0.0999,0.0998,0,0,-0.0161,-0.008,-0.0033,0.0102,0.017,0.0253,0.0265,0.0352,0.0415,0.0468,0.0576,0.0635,0.0737,0.0846,0.0898,0.0897,0.1049,0.1015,0.1016,0.1024,0.1087,0.1096,0.1103,0.1002,0.1001,0.1001,0,0,-0.0107,-0.0038,0.0041,0.0109,0.0213,0.027,0.0289,0.0401,0.0443,0.0552,0.0593,0.067,0.0821,0.0892,0.0948,0.1029,0.1058,0.1056,0.1073,0.1134,0.1141,0.1148,0.1178,0.1188,0.1064,0.1064,0.1064,0,-0.0112,0.0013,0.0078,0.0164,0.0223,0.0273,0.0355,0.0418,0.0546,0.0586,0.0582,0.0774,0.0846,0.0974,0.0993,0.1036,0.1062,0.1043,0.1135,0.1142,0.1149,0.1179,0.119,0.1063,0.1063,0.1063,0.1063,0,0.0003,0.009,0.0141,0.0262,0.0327,0.041,0.0489,0.0547,0.0583,0.0641,0.0752,0.084,0.0947,0.098,0.1017,0.1114,0.111,0.1119,0.1113,0.1156,0.1186,0.1198,0.1062,0.1062,0.1063,0.1063,0,0,0.0035,0.019,0.0208,0.0264,0.0382,0.0451,0.0537,0.0641,0.069,0.0776,0.0851,0.0978,0.0988,0.1051,0.1096,0.1149,0.121,0.1153,0.1157,0.1162,0.1324,0.1317,0.1329,0.1229,0.1231,0.1233,0.1316,0,0.0105,0.0259,0.0321,0.0447,0.0528,0.0578,0.0653,0.0734,0.0791,0.0869,0.0933,0.1022,0.1028,0.1067,0.1121,0.1191,0.1244,0.1186,0.1301,0.1305,0.1275,0.1344,0.1337,0.1411,0.1328,0.133,0.1331,0,0.0208,0.0294,0.0428,0.0536,0.0573,0.0639,0.074,0.0814,0.0908,0.0946,0.1016,0.1058,0.1152,0.1138,0.1268,0.1227,0.1278,0.132,0.1324,0.1339,0.1321,0.1362,0.1436,0.1447,0.135,0.1348,0.1347,0,0.0219,0.0369,0.0469,0.0515,0.0644,0.0689,0.0745,0.0837,0.0896,0.0984,0.1024,0.1122,0.1176,0.1252,0.132,0.1303,0.1445,0.1436,0.148,0.1479,0.1509,0.1506,0.1593,0.1539,0.1539,0.1539,0.1538,0,0.0292,0.0372,0.0476,0.0537,0.0629,0.0699,0.0789,0.0848,0.093,0.1005,0.1053,0.1123,0.1208,0.1289,0.1342,0.1443,0.1467,0.1501,0.1515,0.1498,0.1494,0.1533,0.1531,0.1542,0.1541,0.154,0.154,0,0.0321,0.0393,0.0506,0.0618,0.0648,0.0711,0.0809,0.0871,0.093,0.1024,0.1051,0.1143,0.1241,0.1316,0.1443,0.148,0.1587,0.1601,0.1555,0.1563,0.1603,0.1599,0.172,0.174,0.167,0.1671,0.1671,0,0.0363,0.0426,0.0546,0.0599,0.0654,0.0739,0.08,0.0871,0.0932,0.1044,0.1093,0.1194,0.1279,0.1433,0.1513,0.1611,0.1628,0.1664,0.1643,0.1624,0.1631,0.1626,0.1634,0.1667,0.1667,0.1667,0.1668,0,0.0432,0.0464,0.0548,0.0646,0.0716,0.0796,0.0877,0.0918,0.1005,0.1071,0.1171,0.1236,0.1366,0.1467,0.1573,0.1632,0.1665,0.1673,0.1689,0.1673,0.1644,0.1662,0.1564,0.1671,0.167,0.167,0.167,0.167,0.047,0.0529,0.0622,0.0714,0.0783,0.0858,0.0922,0.0989,0.1073,0.1184,0.1221,0.1324,0.1418,0.1563,0.1624,0.1707,0.1708,0.173,0.1736,0.1741,0.174,0.163,0.1726,0.1726,0.1726,0.1726,0.1726,0,0.0542,0.0604,0.0688,0.08,0.0873,0.0896,0.0988,0.1048,0.1138,0.1222,0.1304,0.1419,0.1517,0.1604,0.1706,0.1756,0.1774,0.178,0.1778,0.1792,0.1733,0.1709,0.1764,0.1764,0.1764,0.1764,0.1764,0.1764,0.0588,0.0689,0.0733,0.0868,0.0931,0.1032,0.1082,0.1152,0.1219,0.1346,0.1427,0.1482,0.1568,0.1677,0.1768,0.1791,0.1827,0.183,0.1857,0.18,0.1796,0.1791,0.177,0.1837,0.1837,0.191,0.1911,0.1911]}]]